[[{"header":{"parameterUnit":"m.s-1","parameterCategory":1,"la1":30.2991,"la2":30.254,"lo1":-89.0895,"lo2":-89.0444,"dy":0.0017,"dx":0.0017,"nx":28,"ny":28,"refTime":"2025-05-28T09:00:00:Z","depth":0,"parameterNumber":2,"parameterNumberName":"U-component_of_WINDS"},"data":[0,0,0,0,0,0,0,0,0,0,0,0,0,0,0,0,0,0,0,0,0,0,0,0,0,0,0,0,0,0,0,0,0,0,0,0,0,0,0,0,0,0,0,0,0,0,0,0,0,0,0,0,0,0,0,0,0,0,-0.6005,-0.6003,0,-0.5809,-0.5807,-0.5804,-0.568,-0.568,-0.5679,-0.5678,-0.5474,-0.547,-0.5465,0,0,0,0,0,0,0,0,0,0,0,0,0,-0.6269,-0.6265,-0.6005,-0.6002,-0.6,-0.5809,-0.5807,-0.5804,-0.568,-0.568,-0.5679,-0.5678,-0.5476,-0.547,-0.5465,0,0,0,0,0,0,0,0,0,0,0,0,0,-0.6122,-0.6264,-0.6005,-0.5915,-0.5905,-0.581,-0.5806,-0.5803,-0.5681,-0.5679,-0.5678,-0.5677,-0.5478,-0.5471,-0.5464,-0.5441,0,0,-0.5442,-0.5439,0,0,0,0,0,0,0,0,-0.6131,-0.6112,-0.5931,-0.5921,-0.591,-0.5768,-0.5825,-0.5682,-0.5681,-0.5766,-0.5678,-0.5677,-0.5573,-0.5558,-0.5523,-0.5432,-0.5423,-0.5442,-0.5437,-0.5434,-0.5432,0,0,0,0,0,0,0,-0.6141,-0.612,-0.5927,-0.5929,-0.5916,-0.5884,-0.5862,-0.5797,-0.5678,-0.5758,-0.5749,-0.5728,-0.5567,-0.5531,-0.5518,-0.542,-0.5442,-0.5435,-0.5431,-0.5428,-0.53,-0.5301,0,0,0,0,0,0,-0.6166,-0.613,-0.5933,-0.5921,-0.602,-0.588,-0.5855,-0.5815,-0.5678,-0.5656,-0.5729,-0.5723,-0.5543,-0.5526,-0.551,-0.5474,-0.5434,-0.5427,-0.5423,-0.5299,-0.53,-0.5301,0,0,0,0,0,0,-0.6172,-0.6149,-0.5941,-0.6023,-0.5994,-0.5877,-0.5832,-0.5811,-0.5775,-0.5656,-0.5633,-0.5714,-0.5542,-0.552,-0.546,-0.5466,-0.5424,-0.5418,-0.5298,-0.53,-0.5301,-0.5404,0,0,0,0,0,0,-0.618,-0.6152,-0.6143,-0.6024,-0.599,-0.5895,-0.5832,-0.5808,-0.5763,-0.5753,-0.5636,-0.5615,-0.5539,-0.5471,-0.5453,-0.5455,-0.5412,-0.5297,-0.5299,-0.53,-0.54,-0.5409,-0.5417,0,0,0,0,0,-0.619,-0.6179,-0.6143,-0.612,-0.5976,-0.5896,-0.5877,-0.579,-0.5764,-0.5754,-0.5677,-0.5619,-0.5468,-0.5466,-0.5444,-0.5445,-0.5296,-0.5298,-0.53,-0.5396,-0.5407,-0.5416,0,0,0,0,0,0,-0.6302,-0.6162,-0.6121,-0.6071,-0.5997,-0.5875,-0.5859,-0.5805,-0.5735,-0.5729,-0.5624,-0.5598,-0.5548,-0.549,-0.549,-0.5416,-0.5375,-0.5373,-0.5456,-0.5465,-0.5474,-0.5489,-0.5406,0,0,0,0,0,-0.6321,-0.6268,-0.6148,-0.6116,-0.6081,-0.5977,-0.5939,-0.5879,-0.5797,-0.5764,-0.5683,-0.5605,-0.554,-0.5499,-0.5433,-0.5391,-0.5363,-0.538,-0.5389,-0.5396,-0.5396,-0.5369,-0.5375,-0.5308,-0.5308,-0.5308,0,0,-0.6359,-0.6277,-0.625,-0.6137,-0.6072,-0.6019,-0.5951,-0.5898,-0.5858,-0.5756,-0.5694,-0.5632,-0.5538,-0.5487,-0.546,-0.5437,-0.5408,-0.5399,-0.5406,-0.5401,-0.5372,-0.5378,-0.5384,-0.5309,-0.5309,-0.5309,0,0,-0.6403,-0.6335,-0.6301,-0.6238,-0.6141,-0.6071,-0.6064,-0.595,-0.5906,-0.5842,-0.5765,-0.5715,-0.5605,-0.5541,-0.5495,-0.5515,-0.5458,-0.5496,-0.554,-0.5516,-0.5521,-0.5525,-0.5533,-0.5537,-0.5495,-0.5496,-0.5496,0,-0.6463,-0.6381,-0.629,-0.6242,-0.6194,-0.6101,-0.6066,-0.6008,-0.5894,-0.5863,-0.5839,-0.57,-0.563,-0.5562,-0.5568,-0.5533,-0.552,-0.5509,-0.5528,-0.5531,-0.5534,-0.5539,-0.5543,-0.5501,-0.55,-0.55,-0.5499,0,-0.6459,-0.6404,-0.6388,-0.6282,-0.6232,-0.6191,-0.6093,-0.6054,-0.5999,-0.5932,-0.5869,-0.5782,-0.5696,-0.5676,-0.562,-0.5601,-0.5589,-0.5548,-0.5505,-0.5547,-0.5551,-0.5552,-0.5508,-0.5507,-0.5505,-0.5504,0,0,-0.6567,-0.6412,-0.6408,-0.6358,-0.6245,-0.62,-0.6154,-0.6071,-0.604,-0.5964,-0.5923,-0.5833,-0.5794,-0.5741,-0.5678,-0.5656,-0.5678,-0.5617,-0.5613,-0.5632,-0.5651,-0.5683,-0.5687,-0.564,-0.5641,-0.5641,-0.5659,0,-0.6594,-0.6508,-0.6425,-0.6368,-0.6315,-0.6226,-0.6186,-0.6112,-0.6049,-0.5994,-0.5923,-0.5861,-0.5815,-0.5782,-0.5757,-0.5681,-0.5681,-0.5679,-0.56,-0.5599,-0.5627,-0.5689,-0.5722,-0.5744,-0.566,-0.566,-0.566,0,-0.6613,-0.6543,-0.6482,-0.6374,-0.6348,-0.6314,-0.6232,-0.6181,-0.6095,-0.605,-0.5992,-0.5926,-0.5872,-0.5836,-0.5761,-0.5761,-0.5724,-0.5682,-0.5681,-0.567,-0.5632,-0.568,-0.5749,-0.5753,-0.5661,-0.5661,-0.5661,0,-0.6699,-0.6589,-0.6538,-0.6498,-0.6371,-0.6349,-0.6294,-0.6207,-0.6163,-0.6091,-0.6061,-0.5984,-0.5941,-0.5882,-0.5797,-0.5778,-0.5731,-0.5687,-0.5692,-0.5694,-0.5685,-0.5687,-0.575,-0.5662,-0.5662,-0.5662,-0.5662,0,-0.6737,-0.6703,-0.6574,-0.6543,-0.6502,-0.6407,-0.6369,-0.6306,-0.623,-0.6184,-0.6102,-0.6061,-0.595,-0.5896,-0.5828,-0.5776,-0.5758,-0.572,-0.5702,-0.5727,-0.5732,-0.5701,-0.5698,-0.5663,-0.5662,-0.5662,-0.5662,0,-0.6826,-0.6738,-0.6677,-0.6562,-0.6532,-0.6507,-0.6407,-0.6373,-0.6306,-0.6249,-0.623,-0.6124,-0.6056,-0.5964,-0.5867,-0.5822,-0.5778,-0.5751,-0.5808,-0.5798,-0.5808,-0.5808,-0.5853,-0.5854,-0.5766,-0.5767,-0.5768,0,-0.6856,-0.6828,-0.671,-0.6674,-0.6623,-0.6566,-0.6521,-0.6426,-0.6382,-0.6282,-0.626,-0.6186,-0.6121,-0.6016,-0.593,-0.5855,-0.5825,-0.5846,-0.5813,-0.584,-0.5826,-0.5829,-0.5825,-0.5854,-0.5855,-0.5857,-0.5858,0,-0.692,-0.6878,-0.6816,-0.674,-0.6689,-0.6624,-0.6555,-0.653,-0.6421,-0.6375,-0.6305,-0.6256,-0.6157,-0.6084,-0.5998,-0.5941,-0.5881,-0.5869,-0.5866,-0.5891,-0.5926,-0.5907,-0.583,-0.5868,-0.5867,-0.5866,-0.5866,-0.5865,-0.698,-0.6951,-0.6864,-0.6798,-0.6736,-0.6674,-0.6637,-0.6565,-0.6505,-0.6418,-0.6365,-0.6298,-0.6212,-0.609,-0.6036,-0.5981,-0.5957,-0.5953,-0.5952,-0.5953,-0.5961,-0.5935,-0.5965,-0.5964,-0.5964,-0.5964,-0.5963,0,-0.7039,-0.6979,-0.692,-0.6826,-0.6775,-0.6724,-0.6645,-0.6605,-0.6547,-0.6472,-0.6411,-0.633,-0.6259,-0.6168,-0.609,-0.6064,-0.6035,-0.6047,-0.6048,-0.6036,-0.5986,-0.5997,-0.6072,-0.6072,-0.6072,-0.6072,-0.6072,-0.6072,-0.7064,-0.7013,-0.6961,-0.6878,-0.6817,-0.6751,-0.671,-0.6652,-0.6592,-0.6507,-0.6448,-0.6389,-0.6307,-0.6223,-0.6155,-0.613,-0.6106,-0.6126,-0.6093,-0.6049,-0.6039,-0.603,-0.6039,-0.6122,-0.6122,-0.6147,-0.6147,-0.6147]},{"header":{"parameterUnit":"m.s-1","parameterCategory":1,"la1":30.2991,"la2":30.254,"lo1":-89.0895,"lo2":-89.0444,"dy":0.0017,"dx":0.0017,"nx":28,"ny":28,"refTime":"2025-05-28T09:00:00:Z","depth":0,"parameterNumber":3,"parameterNumberName":"V-component_of_WINDS"},"data":[0,0,0,0,0,0,0,0,0,0,0,0,0,0,0,0,0,0,0,0,0,0,0,0,0,0,0,0,0,0,0,0,0,0,0,0,0,0,0,0,0,0,0,0,0,0,0,0,0,0,0,0,0,0,0,0,0,0,4.3392,4.3392,0,4.3426,4.3426,4.3426,4.3432,4.3432,4.3431,4.3431,4.3462,4.3463,4.3465,0,0,0,0,0,0,0,0,0,0,0,0,0,4.333,4.3331,4.3392,4.3392,4.3393,4.3426,4.3426,4.3426,4.3432,4.3432,4.3431,4.3431,4.3462,4.3463,4.3465,0,0,0,0,0,0,0,0,0,0,0,0,0,4.3359,4.3331,4.3392,4.34,4.3401,4.3425,4.3426,4.3427,4.3432,4.3432,4.3431,4.3431,4.3462,4.3463,4.3465,4.3483,0,0,4.347,4.3471,0,0,0,0,0,0,0,0,4.3358,4.3361,4.3398,4.3399,4.34,4.3424,4.3416,4.3445,4.3432,4.342,4.3431,4.3431,4.345,4.3452,4.346,4.3485,4.3486,4.347,4.3471,4.3472,4.3472,0,0,0,0,0,0,0,4.3355,4.336,4.3405,4.3398,4.34,4.34,4.3404,4.3421,4.3437,4.3421,4.3422,4.3426,4.345,4.3458,4.346,4.3487,4.347,4.3471,4.3472,4.3473,4.3529,4.3529,0,0,0,0,0,0,4.3352,4.3358,4.3404,4.3406,4.3378,4.3402,4.3406,4.3417,4.3437,4.3439,4.3426,4.3426,4.3455,4.3458,4.3461,4.3485,4.3472,4.3473,4.3474,4.3528,4.3529,4.353,0,0,0,0,0,0,4.3351,4.3356,4.3403,4.3382,4.3388,4.3403,4.3415,4.3418,4.3425,4.344,4.3443,4.3431,4.3455,4.3459,4.3478,4.3486,4.3474,4.3475,4.3528,4.3529,4.3529,4.3531,0,0,0,0,0,0,4.3349,4.3356,4.3364,4.3383,4.3389,4.342,4.3416,4.3419,4.3429,4.3429,4.3446,4.3448,4.3455,4.3476,4.348,4.3488,4.3477,4.3527,4.3528,4.3529,4.353,4.3531,4.3533,0,0,0,0,0,4.3347,4.3362,4.3364,4.337,4.34,4.342,4.3424,4.3432,4.3429,4.3437,4.3446,4.3448,4.3484,4.3478,4.3482,4.3491,4.3527,4.3528,4.3529,4.3529,4.3531,4.3533,0,0,0,0,0,0,4.3342,4.3365,4.3367,4.3389,4.3403,4.3421,4.3431,4.3434,4.3448,4.3447,4.3456,4.346,4.3479,4.3487,4.3479,4.351,4.3505,4.3507,4.3504,4.3506,4.3507,4.3504,4.3478,0,0,0,0,0,4.3344,4.336,4.3378,4.3395,4.3402,4.3415,4.3425,4.343,4.3444,4.345,4.3461,4.3474,4.3488,4.3497,4.3512,4.3531,4.3535,4.354,4.3541,4.3542,4.3543,4.3555,4.3557,4.3533,4.3533,4.3533,0,0,4.3347,4.3361,4.337,4.3395,4.3406,4.3421,4.342,4.3436,4.3447,4.3452,4.3471,4.3479,4.3494,4.3514,4.3523,4.3521,4.3551,4.3543,4.3544,4.3545,4.3556,4.3558,4.356,4.3534,4.3534,4.3534,0,0,4.3361,4.3373,4.339,4.3401,4.3419,4.3428,4.3432,4.345,4.3456,4.3475,4.3479,4.3492,4.3517,4.3528,4.3536,4.3555,4.3556,4.3559,4.3565,4.3576,4.3578,4.358,4.3586,4.3588,4.3561,4.3561,4.3561,0,4.3362,4.3387,4.3397,4.3413,4.3424,4.343,4.3446,4.3456,4.3477,4.3484,4.3482,4.3513,4.3524,4.3546,4.3551,4.3557,4.3562,4.3557,4.3577,4.3579,4.3581,4.3587,4.3589,4.3561,4.3561,4.3561,4.3561,0,4.3387,4.3404,4.3415,4.3436,4.3448,4.3464,4.3476,4.3486,4.3491,4.35,4.3519,4.3532,4.3549,4.3555,4.3559,4.3578,4.3576,4.3575,4.3571,4.3583,4.3589,4.3591,4.3561,4.3561,4.3561,4.3561,0,0,4.3398,4.3426,4.343,4.344,4.346,4.3473,4.3489,4.3507,4.3515,4.353,4.3543,4.3564,4.3564,4.3574,4.3579,4.3589,4.3602,4.3587,4.3587,4.3589,4.3624,4.3624,4.3626,4.3604,4.3604,4.3605,4.3622,0,4.3414,4.3445,4.3455,4.3479,4.3495,4.3501,4.3515,4.3528,4.3537,4.3551,4.356,4.3575,4.3573,4.3579,4.3589,4.3599,4.3609,4.3598,4.3616,4.3616,4.3611,4.363,4.363,4.3646,4.3625,4.3625,4.3625,0,4.3437,4.3453,4.348,4.3499,4.3505,4.3518,4.3535,4.3548,4.3564,4.3569,4.3581,4.3586,4.3602,4.3597,4.3619,4.3611,4.3619,4.3625,4.3625,4.3627,4.3621,4.3631,4.3651,4.3653,4.3629,4.3629,4.3629,0,4.3442,4.347,4.349,4.3498,4.3521,4.3529,4.3539,4.3554,4.3564,4.3579,4.3586,4.3602,4.361,4.3622,4.3631,4.3627,4.3653,4.3648,4.3657,4.3657,4.3662,4.3661,4.3683,4.3667,4.3667,4.3667,4.3667,0,4.3459,4.3475,4.3493,4.3505,4.3523,4.3534,4.3551,4.3561,4.3574,4.3587,4.3594,4.3606,4.3617,4.3631,4.3638,4.3655,4.3659,4.3663,4.3665,4.3662,4.3662,4.3667,4.3666,4.3668,4.3668,4.3668,4.3668,0,4.3468,4.348,4.3502,4.3522,4.3528,4.354,4.3557,4.3568,4.3577,4.3594,4.3599,4.3613,4.3629,4.364,4.366,4.3664,4.3683,4.3685,4.3678,4.3679,4.3687,4.3686,4.3713,4.3717,4.3699,4.3699,4.3699,0,4.3477,4.349,4.3512,4.3522,4.3532,4.3548,4.3559,4.357,4.3581,4.36,4.3609,4.3626,4.364,4.3665,4.3677,4.3692,4.3694,4.3702,4.3696,4.3694,4.3694,4.3693,4.3694,4.3703,4.3703,4.3703,4.3703,0,4.3493,4.3499,4.3515,4.3534,4.3547,4.3561,4.3576,4.3583,4.3597,4.3609,4.3626,4.3637,4.3659,4.3675,4.3692,4.3701,4.3704,4.3705,4.3708,4.3706,4.3701,4.3704,4.3681,4.3704,4.3704,4.3704,4.3704,4.3704,4.3503,4.3515,4.3532,4.355,4.3562,4.3576,4.3588,4.3599,4.3614,4.3633,4.3638,4.3656,4.3671,4.3694,4.3704,4.3717,4.3716,4.372,4.3721,4.3722,4.3722,4.37,4.372,4.372,4.372,4.372,4.372,0,4.3519,4.3531,4.3547,4.3568,4.3582,4.3585,4.3601,4.3612,4.3628,4.3643,4.3657,4.3677,4.3693,4.3706,4.3722,4.3731,4.3733,4.3735,4.3734,4.3736,4.3722,4.3718,4.3733,4.3733,4.3733,4.3733,4.3733,4.3733,4.3529,4.3549,4.3557,4.3583,4.3595,4.3613,4.3622,4.3635,4.3646,4.3668,4.3682,4.3691,4.3705,4.3722,4.3737,4.3741,4.3746,4.3748,4.3751,4.3738,4.3737,4.3736,4.3732,4.3749,4.3749,4.3764,4.3764,4.3764]}]]